Temp
-17 -16 -16 -16 -16 -17 -17 -17 -17 -17 -16 -16 -16 -17 -16 -16 -16 -16 -16 -16 -16 -16 -16 -15 -15 -15 -15 -15 -15 -15 -15 -15 -16 -16 -16 -16 -15 -15 -15 -15 -15 -15 -15 -15
-16 -16 -16 -16 -16 -16 -16 -16 -16 -16 -17 -17 -17 -16 -16 -16 -16 -15 -16 -15 -16 -15 -15 -15 -15 -15 -15 -15 -15 -15 -15 -15 -16 -16 -16 -15 -15 -15 -15 -15 -15 -15 -15 -15
-16 -16 -16 -17 -17 -16 -16 -16 -16 -16 -16 -16 -16 -16 -16 -16 -15 -15 -15 -15 -15 -15 -16 -16 -16 -16 -16 -15 -15 -15 -16 -16 -16 -16 -16 -15 -15 -15 -15 -15 -15 -15 -15 -16
-15 -15 -16 -17 -16 -16 -16 -17 -16 -16 -16 -16 -15 -15 -16 -16 -15 -15 -15 -15 -15 -15 -15 -16 -16 -16 -16 -16 -16 -16 -16 -16 -15 -16 -16 -15 -15 -15 -16 -15 -15 -15 -16 -16
-16 -15 -16 -16 -16 -16 -16 -15 -15 -16 -16 -16 -16 -15 -15 -15 -15 -15 -15 -15 -15 -15 -15 -15 -16 -16 -16 -16 -16 -16 -15 -16 -16 -15 -15 -15 -16 -16 -15 -15 -15 -16 -16 -16
-15 -15 -15 -16 -16 -16 -15 -16 -16 -16 -16 -16 -16 -16 -15 -15 -14 -14 -14 -14 -15 -15 -15 -15 -16 -16 -15 -15 -15 -15 -15 -15 -15 -15 -15 -15 -15 -15 -16 -16 -16 -16 -16 -16
-15 -15 -15 -15 -15 -16 -16 -15 -14 -15 -15 -15 -16 -15 -16 -15 -15 -15 -14 -14 -14 -15 -15 -15 -15 -15 -15 -15 -15 -15 -15 -15 -15 -15 -15 -15 -15 -16 -16 -16 -16 -16 -16 -17
-15 -15 -15 -15 -15 -16 -16 -15 -14 -15 -15 -15 -16 -14 -15 -15 -15 -15 -14 -14 -14 -14 -14 -15 -15 -15 -15 -15 -15 -15 -15 -15 -15 -15 -15 -16 -16 -16 -16 -16 -16 -17 -17 -18
-15 -15 -15 -15 -16 -16 -15 -15 -15 -15 -15 -15 -16 -15 -15 -15 -15 -15 -15 -15 -14 -15 -14 -15 -15 -15 -15 -15 -15 -15 -15 -15 -15 -15 -16 -16 -16 -16 -16 -17 -17 -17 -18 -18
-16 -16 -15 -16 -16 -16 -16 -16 -16 -16 -15 -16 -16 -16 -15 -16 -15 -15 -15 -15 -15 -15 -15 -15 -15 -15 -15 -15 -15 -15 -16 -15 -16 -16 -16 -15 -15 -16 -17 -17 -18 -18 -18 -19
-16 -15 -17 -16 -16 -17 -17 -16 -16 -16 -16 -16 -16 -16 -16 -16 -15 -15 -15 -15 -15 -15 -15 -15 -15 -15 -15 -15 -15 -16 -16 -16 -16 -15 -15 -16 -16 -17 -17 -17 -18 -18 -18 -19
-16 -16 -17 -17 -17 -16 -16 -16 -16 -16 -16 -16 -16 -15 -16 -16 -16 -15 -15 -16 -16 -16 -15 -15 -16 -16 -16 -16 -16 -16 -16 -16 -15 -15 -15 -16 -16 -17 -17 -18 -18 -19 -19 -19
-16 -16 -16 -17 -17 -16 -16 -16 -17 -17 -16 -16 -16 -15 -16 -16 -16 -16 -15 -15 -16 -16 -16 -16 -16 -16 -16 -16 -15 -15 -15 -16 -16 -16 -16 -17 -17 -18 -18 -18 -18 -19 -19 -19
-16 -16 -16 -16 -17 -18 -17 -17 -17 -17 -16 -16 -15 -16 -16 -16 -16 -16 -15 -15 -15 -15 -15 -16 -16 -15 -15 -15 -15 -15 -15 -15 -15 -16 -17 -17 -17 -17 -18 -18 -19 -19 -19 -20
-17 -16 -17 -17 -17 -17 -17 -17 -17 -16 -16 -16 -16 -16 -16 -16 -16 -16 -16 -15 -15 -15 -15 -15 -15 -15 -15 -15 -15 -15 -15 -16 -16 -17 -18 -18 -17 -18 -19 -19 -19 -20 -20 -20
-17 -17 -17 -17 -17 -17 -17 -17 -17 -16 -16 -16 -16 -16 -16 -16 -16 -16 -16 -16 -16 -16 -16 -15 -15 -15 -15 -15 -15 -16 -16 -16 -16 -17 -17 -18 -19 -19 -19 -20 -20 -20 -20 -20
-16 -17 -17 -17 -17 -16 -16 -16 -16 -16 -16 -16 -16 -16 -16 -16 -16 -16 -16 -16 -16 -16 -16 -16 -16 -16 -16 -15 -15 -15 -16 -16 -17 -17 -17 -18 -18 -19 -20 -20 -20 -20 -21 -21
-16 -16 -16 -16 -17 -16 -15 -16 -16 -16 -16 -16 -16 -16 -16 -16 -16 -16 -16 -16 -16 -16 -16 -16 -16 -16 -15 -15 -16 -16 -17 -17 -17 -18 -18 -19 -19 -20 -20 -20 -21 -21 -21 -22
-16 -16 -16 -16 -16 -16 -15 -16 -16 -16 -16 -16 -16 -16 -16 -16 -16 -17 -17 -17 -16 -16 -16 -16 -15 -15 -16 -16 -16 -17 -17 -18 -18 -18 -19 -19 -20 -20 -21 -21 -21 -22 -21 -22
-16 -16 -16 -16 -16 -16 -16 -17 -16 -16 -16 -16 -16 -16 -17 -17 -17 -17 -16 -16 -16 -16 -16 -16 -16 -16 -16 -16 -17 -17 -17 -18 -18 -19 -19 -20 -20 -21 -21 -22 -22 -22 -22 -23
-16 -16 -16 -16 -16 -15 -16 -17 -17 -16 -16 -17 -17 -17 -17 -17 -16 -16 -16 -16 -16 -16 -16 -16 -16 -16 -16 -17 -17 -18 -18 -19 -19 -19 -20 -21 -21 -21 -21 -22 -22 -23 -23 -24
-16 -16 -16 -16 -16 -16 -16 -17 -17 -17 -17 -18 -18 -17 -17 -17 -16 -16 -16 -16 -16 -16 -16 -16 -16 -17 -17 -18 -18 -18 -19 -19 -20 -20 -21 -21 -21 -22 -22 -23 -23 -23 -23 -24
-16 -16 -16 -16 -15 -16 -16 -17 -17 -17 -17 -17 -17 -17 -17 -17 -17 -17 -17 -16 -16 -16 -16 -17 -17 -17 -18 -18 -18 -19 -19 -20 -20 -21 -21 -21 -22 -23 -23 -23 -23 -23 -24 -25
-16 -16 -16 -16 -16 -16 -16 -17 -17 -17 -17 -17 -16 -16 -17 -17 -16 -16 -16 -16 -16 -17 -17 -17 -17 -18 -18 -19 -19 -19 -20 -20 -21 -21 -21 -22 -23 -23 -23 -23 -24 -25 -25 -26
-17 -16 -16 -16 -16 -17 -17 -17 -17 -17 -17 -17 -17 -16 -16 -16 -17 -17 -17 -17 -17 -17 -17 -18 -18 -19 -19 -19 -20 -20 -21 -21 -21 -22 -22 -23 -23 -23 -24 -24 -25 -26 -26 -27
-17 -16 -17 -17 -17 -17 -17 -17 -17 -17 -17 -17 -16 -17 -17 -17 -17 -17 -17 -17 -17 -18 -18 -19 -19 -19 -20 -20 -20 -21 -21 -21 -22 -23 -23 -24 -24 -24 -25 -25 -25 -27 -28 -28
Height
5753 5754 5754 5754 5754 5756 5757 5759 5760 5762 5764 5763 5763 5765 5767 5768 5769 5771 5770 5770 5771 5771 5772 5773 5775 5776 5776 5778 5779 5779 5779 5780 5777 5779 5778 5780 5781 5782 5781 5780 5779 5776 5775 5775
5753 5752 5751 5751 5753 5756 5759 5759 5761 5763 5762 5763 5763 5763 5765 5767 5768 5769 5771 5771 5771 5772 5773 5773 5775 5775 5776 5777 5778 5779 5779 5778 5778 5778 5777 5778 5779 5778 5777 5775 5775 5772 5772 5772
5751 5751 5749 5749 5752 5755 5758 5759 5758 5760 5760 5761 5762 5762 5764 5765 5767 5769 5769 5771 5771 5771 5772 5772 5773 5774 5774 5774 5773 5773 5773 5773 5775 5775 5773 5774 5773 5773 5772 5773 5770 5769 5766 5761
5749 5749 5748 5748 5750 5753 5754 5756 5756 5757 5759 5759 5760 5761 5761 5762 5764 5766 5768 5769 5769 5769 5769 5770 5772 5772 5772 5770 5768 5768 5767 5769 5770 5770 5768 5768 5768 5769 5767 5765 5763 5758 5753 5750
5747 5747 5749 5749 5749 5750 5751 5754 5755 5756 5757 5757 5758 5758 5759 5760 5762 5765 5765 5764 5765 5766 5767 5768 5769 5769 5769 5767 5766 5766 5765 5765 5766 5766 5766 5766 5765 5764 5762 5758 5754 5749 5746 5741
5743 5744 5747 5748 5748 5750 5752 5754 5755 5755 5756 5756 5757 5757 5759 5758 5760 5759 5760 5760 5760 5761 5762 5764 5765 5765 5764 5763 5763 5762 5762 5763 5763 5764 5762 5761 5760 5757 5754 5750 5746 5742 5738 5732
5742 5742 5744 5745 5746 5749 5751 5753 5755 5755 5755 5756 5755 5755 5757 5757 5758 5758 5759 5759 5758 5757 5757 5760 5761 5761 5761 5761 5761 5760 5760 5760 5760 5760 5759 5757 5754 5752 5747 5743 5738 5732 5727 5721
5738 5742 5742 5742 5745 5747 5749 5752 5752 5751 5752 5753 5752 5753 5756 5755 5756 5756 5756 5756 5756 5755 5755 5756 5756 5757 5758 5757 5757 5757 5757 5756 5756 5756 5753 5750 5746 5743 5738 5733 5727 5721 5715 5711
5736 5738 5740 5740 5743 5747 5748 5748 5750 5750 5749 5750 5750 5750 5752 5753 5753 5753 5753 5754 5753 5753 5752 5753 5754 5753 5754 5754 5752 5752 5751 5750 5750 5749 5746 5742 5738 5733 5728 5722 5718 5713 5708 5703
5734 5735 5736 5738 5741 5744 5745 5746 5747 5747 5747 5746 5747 5747 5747 5749 5750 5750 5750 5750 5751 5751 5751 5751 5750 5750 5750 5748 5747 5748 5745 5742 5740 5738 5735 5732 5728 5723 5719 5714 5709 5704 5699 5693
5729 5731 5734 5735 5738 5741 5743 5742 5743 5744 5742 5742 5743 5745 5744 5744 5746 5747 5747 5748 5748 5749 5749 5748 5748 5747 5746 5745 5744 5742 5739 5737 5734 5731 5726 5723 5720 5716 5710 5705 5700 5693 5687 5681
5727 5729 5728 5731 5733 5734 5735 5735 5737 5738 5740 5738 5737 5741 5741 5740 5740 5742 5744 5745 5745 5746 5746 5745 5745 5743 5742 5741 5739 5736 5733 5729 5726 5722 5718 5716 5711 5706 5701 5694 5687 5682 5676 5669
5722 5724 5727 5729 5730 5729 5730 5730 5732 5733 5734 5734 5733 5737 5737 5736 5737 5736 5736 5740 5740 5741 5741 5740 5739 5739 5738 5736 5733 5730 5726 5722 5716 5712 5710 5706 5701 5695 5689 5683 5677 5671 5665 5658
5717 5719 5721 5724 5726 5725 5726 5728 5728 5729 5728 5730 5730 5732 5732 5731 5729 5729 5730 5733 5735 5735 5735 5735 5733 5731 5730 5727 5723 5720 5716 5713 5709 5706 5702 5696 5689 5684 5678 5672 5665 5660 5653 5646
5713 5715 5716 5717 5718 5719 5721 5723 5724 5724 5725 5725 5727 5726 5726 5724 5723 5724 5725 5727 5729 5730 5729 5727 5725 5722 5720 5717 5714 5711 5707 5704 5701 5695 5689 5683 5678 5672 5666 5660 5654 5647 5640 5632
5708 5709 5711 5712 5714 5715 5716 5717 5717 5719 5719 5719 5718 5718 5720 5719 5717 5718 5720 5720 5721 5720 5718 5716 5714 5710 5708 5706 5703 5701 5698 5694 5688 5682 5677 5671 5666 5660 5655 5648 5641 5634 5626 5618
5702 5704 5707 5707 5708 5708 5707 5711 5712 5712 5712 5712 5711 5713 5714 5714 5713 5713 5713 5713 5713 5711 5709 5707 5704 5701 5697 5694 5691 5689 5685 5680 5676 5671 5665 5660 5654 5648 5641 5634 5627 5620 5613 5605
5697 5699 5701 5701 5701 5699 5705 5705 5706 5705 5705 5706 5705 5706 5707 5707 5707 5706 5706 5706 5704 5702 5700 5698 5695 5692 5689 5686 5682 5678 5674 5669 5664 5659 5653 5647 5641 5634 5629 5621 5614 5606 5596 5588
5691 5694 5695 5695 5694 5695 5695 5697 5697 5696 5697 5698 5699 5700 5700 5700 5700 5700 5700 5698 5696 5694 5692 5690 5687 5684 5681 5677 5672 5668 5663 5658 5653 5647 5641 5635 5628 5621 5615 5608 5600 5594 5585 5575
5685 5688 5689 5689 5688 5687 5692 5689 5689 5688 5687 5691 5692 5693 5693 5693 5693 5692 5691 5690 5688 5686 5684 5681 5678 5674 5670 5666 5661 5656 5651 5646 5640 5634 5628 5621 5615 5608 5602 5593 5585 5576 5569 5560
5678 5681 5683 5682 5681 5682 5684 5684 5682 5682 5690 5684 5685 5686 5685 5685 5685 5684 5683 5682 5680 5678 5675 5672 5668 5664 5660 5655 5650 5645 5639 5634 5628 5621 5614 5607 5601 5593 5586 5578 5570 5561 5552 5544
5672 5674 5676 5676 5675 5675 5677 5676 5677 5679 5677 5678 5677 5677 5676 5676 5677 5676 5675 5673 5671 5669 5665 5661 5657 5653 5648 5643 5638 5633 5626 5620 5612 5606 5599 5593 5586 5579 5571 5563 5554 5545 5535 5525
5666 5669 5669 5670 5669 5669 5670 5670 5670 5671 5671 5671 5671 5671 5671 5671 5670 5668 5667 5665 5662 5659 5654 5649 5644 5639 5634 5629 5623 5617 5611 5604 5598 5592 5586 5579 5572 5564 5556 5547 5538 5527 5514 5503
5657 5661 5661 5663 5663 5664 5664 5664 5664 5665 5665 5665 5665 5665 5665 5664 5663 5660 5658 5654 5650 5645 5641 5636 5631 5626 5621 5615 5610 5603 5597 5591 5585 5578 5571 5563 5556 5548 5539 5529 5517 5507 5497 5486
5652 5653 5655 5657 5657 5658 5658 5659 5659 5660 5660 5659 5659 5658 5657 5655 5652 5649 5645 5642 5638 5633 5628 5623 5618 5613 5607 5601 5596 5589 5583 5576 5569 5562 5554 5547 5539 5530 5521 5512 5500 5489 5480 5465
5644 5647 5648 5651 5651 5650 5652 5653 5653 5653 5653 5652 5651 5649 5647 5644 5641 5638 5634 5630 5625 5620 5615 5610 5604 5599 5593 5587 5581 5575 5568 5561 5553 5545 5538 5530 5522 5513 5503 5495 5489 5474 5462 5451
Wind_Speed
12 14 10 13 17 18 15 15 14 8 8 7 11 9 5 2 2 5 7 10 9 7 6 7 6 5 4 2 3 3 3 4 4 5 7 10 11 11 9 12 14 17 21 26
9 11 9 12 15 19 16 12 13 13 9 8 6 10 9 6 8 9 7 9 11 10 9 7 6 4 3 2 1 2 3 3 4 6 7 9 9 9 13 15 20 23 26 30
8 10 8 12 13 16 13 15 17 14 12 8 9 10 8 7 9 9 10 10 12 10 8 5 5 3 2 4 5 6 7 3 4 6 8 9 8 14 18 21 26 29 32 34
8 9 9 15 14 12 18 13 18 20 15 13 8 6 7 8 13 10 5 5 8 9 9 8 6 5 4 6 7 10 10 7 5 7 10 13 14 19 24 29 33 35 37 40
7 12 9 10 8 13 21 18 19 20 18 12 12 10 6 12 13 9 12 11 13 9 8 7 6 8 10 9 11 11 11 10 9 10 14 17 20 24 30 34 37 39 41 45
11 10 11 11 8 21 18 18 20 22 19 15 13 11 3 8 7 6 6 8 10 7 9 10 10 11 13 12 12 11 9 12 12 15 18 22 25 30 34 37 40 43 44 49
13 11 8 10 12 21 21 17 14 16 17 17 15 15 9 6 7 10 11 11 9 8 9 8 8 10 10 11 9 10 11 14 14 18 23 28 30 34 36 41 46 43 48 49
16 10 8 11 12 19 22 18 18 16 15 16 15 13 11 12 12 14 13 11 9 7 5 5 7 6 7 9 10 12 16 17 20 23 27 32 35 40 41 47 48 48 47 51
17 16 12 10 22 20 18 17 17 17 16 18 17 18 14 15 15 16 12 10 9 7 6 5 6 7 9 12 13 17 19 23 26 29 34 37 41 42 43 44 47 45 50 49
21 18 18 16 19 20 17 17 19 21 22 17 19 17 14 16 18 18 13 11 8 7 8 10 10 11 12 15 18 21 26 30 33 37 40 43 39 41 40 45 44 51 52 53
25 24 22 19 19 17 18 21 22 22 24 22 19 17 17 18 18 18 17 14 13 10 12 13 13 15 17 20 23 26 30 34 37 39 39 39 39 44 44 49 54 53 53 56
26 27 28 22 22 24 20 30 31 26 23 24 22 16 18 19 21 22 21 19 18 17 16 16 18 19 21 24 27 30 32 36 37 37 39 41 46 51 49 51 50 52 54 55
24 27 26 20 22 22 16 18 23 25 23 22 21 14 17 23 26 27 28 24 22 20 22 22 21 22 25 29 33 33 34 33 37 39 41 43 40 45 50 55 57 53 57 64
20 20 22 21 17 21 19 18 23 26 27 25 23 19 21 24 29 30 29 23 19 21 22 23 26 29 29 30 32 32 34 36 36 38 39 41 43 49 54 56 57 59 62 65
25 20 19 18 18 23 24 24 26 25 25 24 18 20 22 30 32 32 29 25 22 21 22 25 26 27 29 32 32 32 34 34 43 47 38 40 48 52 55 56 57 63 63 63
23 23 22 21 19 22 26 28 29 26 27 28 29 28 27 29 32 30 26 26 25 25 27 30 31 32 33 33 37 40 41 47 46 43 46 48 49 53 54 58 58 59 61 63
25 25 25 26 26 26 31 27 28 28 29 31 33 31 29 27 28 28 26 26 27 29 30 32 34 36 38 41 44 47 48 47 46 47 49 51 53 54 56 57 59 60 61 61
28 29 30 30 28 32 26 29 31 34 33 31 35 35 28 27 25 26 26 27 29 30 32 34 36 39 42 45 47 47 46 46 48 49 50 52 54 56 56 57 58 54 67 72
31 29 31 32 32 30 28 28 30 31 32 32 30 30 28 27 26 26 28 30 31 32 34 36 39 42 44 46 47 46 46 47 48 50 51 52 53 55 54 57 59 56 67 72
30 30 34 33 33 30 25 28 28 28 31 27 27 27 25 25 27 30 31 31 31 33 37 40 42 45 47 47 47 48 48 49 51 52 52 52 51 45 57 62 63 62 64 68
30 31 34 34 34 32 28 27 30 30 20 22 23 25 28 29 30 29 29 31 34 37 39 43 45 47 47 47 47 47 48 51 52 53 51 50 53 56 58 60 62 64 67 70
32 33 34 32 34 31 26 26 25 19 20 20 24 26 28 28 27 29 32 35 37 40 43 45 46 46 46 46 47 49 51 53 54 51 52 55 56 57 59 61 64 67 72 74
33 33 35 33 30 28 24 21 20 20 20 21 23 24 25 26 29 32 35 37 40 42 43 44 46 46 47 48 50 52 54 54 53 54 55 56 57 59 61 64 69 72 74 76
33 34 35 30 25 22 22 19 19 19 21 22 23 24 26 29 32 35 37 40 42 44 46 47 48 48 50 51 53 54 54 55 55 57 58 59 60 62 66 70 73 75 77 79
33 32 31 28 22 19 19 20 22 22 23 25 27 29 31 33 36 38 40 43 45 47 48 49 50 51 52 54 55 55 55 56 58 59 60 62 64 67 70 73 76 78 79 81
36 31 27 26 26 25 24 24 24 26 27 30 32 33 36 38 40 42 44 46 48 49 50 51 52 53 54 56 56 56 57 59 60 61 62 64 67 70 73 75 77 79 80 80
Wind_Direction
253 259 245 245 224 222 214 234 234 227 170 145 122 125 147 94 171 157 153 154 155 151 155 153 164 150 144 161 100 67 13 333 328 285 278 280 278 267 268 281 292 301 301 298
245 244 232 222 216 221 214 215 212 183 166 159 181 156 196 191 208 190 177 168 167 170 169 167 171 163 150 192 214 220 299 293 262 264 276 272 251 265 280 293 296 299 296 294
253 259 224 198 218 213 218 230 202 195 206 186 195 200 200 217 227 211 189 181 178 169 167 158 158 158 253 269 290 307 329 301 267 259 281 281 270 290 289 290 295 294 295 301
252 253 218 204 215 208 184 230 192 201 214 192 219 233 237 223 222 220 214 255 221 192 193 202 210 224 261 282 295 297 303 299 279 285 289 287 288 290 288 301 299 302 307 308
243 246 233 216 203 205 201 197 203 206 218 220 244 277 247 215 224 227 259 256 227 221 208 218 235 231 231 249 269 273 276 277 285 284 286 289 294 293 297 297 301 305 305 305
205 196 213 229 207 183 183 191 201 225 227 229 241 261 267 260 244 252 227 226 215 227 216 219 242 249 245 249 257 270 260 261 277 285 296 297 296 297 294 298 301 300 300 301
219 192 237 225 215 205 207 203 212 220 233 249 250 259 201 282 217 238 226 233 247 252 242 220 228 236 241 250 256 260 261 268 283 292 293 294 297 295 290 294 299 296 298 305
204 192 221 207 227 193 204 212 221 229 241 254 256 262 237 268 263 249 241 247 246 226 220 201 205 226 251 259 267 277 275 282 286 292 297 299 296 296 293 298 298 299 300 306
203 194 201 186 194 201 213 222 230 246 253 253 249 263 251 244 258 257 249 228 211 207 249 259 260 267 274 286 286 293 295 299 300 298 297 299 300 297 297 296 293 292 299 302
207 206 203 190 195 206 219 237 240 250 253 251 245 255 266 237 245 251 244 240 236 247 254 264 276 281 292 297 300 301 302 303 305 303 301 302 301 296 289 293 293 299 298 301
217 202 208 212 207 216 232 250 256 257 260 258 258 241 258 260 251 243 240 238 239 253 260 265 273 281 290 296 297 297 300 300 298 299 303 300 287 286 286 290 294 298 300 301
226 224 207 213 215 222 245 236 241 252 266 263 258 236 251 257 261 261 254 252 250 252 257 263 273 280 286 288 290 291 292 295 296 296 297 289 286 284 287 293 294 294 294 299
234 237 243 237 234 236 260 257 238 251 252 255 262 262 256 257 261 263 264 253 253 253 264 270 276 275 278 277 275 283 284 290 294 294 289 287 284 284 285 289 288 292 292 299
229 224 235 240 233 245 243 239 238 248 249 260 261 268 268 264 266 265 267 264 261 259 265 269 267 274 278 282 286 294 295 294 290 281 278 285 280 282 285 288 289 291 294 300
233 230 238 233 237 240 236 242 252 261 264 265 267 269 259 255 264 267 269 275 270 269 271 273 276 284 289 290 291 292 285 277 293 298 280 282 281 283 289 289 290 296 299 301
233 242 248 250 241 240 240 242 251 256 262 268 266 267 270 266 263 265 272 277 280 282 283 285 291 295 297 296 300 296 292 301 302 299 295 289 287 292 292 296 299 299 301 304
240 246 250 251 252 250 248 251 260 262 259 264 267 268 269 270 265 268 269 273 275 276 283 289 294 297 298 298 300 303 305 305 303 300 297 295 295 296 298 298 301 301 304 296
243 249 252 256 258 261 270 264 262 263 267 263 267 272 271 265 266 265 269 275 279 283 287 291 292 293 296 300 304 304 303 302 300 299 297 298 296 297 300 300 301 303 296 301
239 251 256 261 267 263 271 277 271 265 262 261 258 261 266 264 265 269 271 273 277 282 287 290 293 297 299 300 300 300 299 298 297 298 298 297 298 300 301 302 304 297 288 291
240 248 253 263 268 263 276 273 271 264 260 261 260 262 261 260 261 264 268 276 284 289 291 294 296 298 299 298 298 299 300 300 300 300 299 299 302 297 295 300 301 300 298 299
247 251 255 263 266 270 274 265 265 263 273 257 253 250 251 258 264 272 281 285 288 291 294 296 296 295 297 299 300 300 300 299 299 300 300 301 300 300 300 299 301 300 302 301
242 250 255 266 270 271 272 263 266 268 252 244 250 257 263 271 279 283 286 289 292 293 293 294 296 298 299 298 299 299 301 303 303 302 302 302 303 301 300 301 302 302 303 307
244 253 262 263 264 263 261 260 260 255 252 252 253 259 268 276 280 283 286 289 291 293 296 299 300 301 301 302 303 304 305 305 303 302 303 303 302 302 303 303 304 307 310 311
246 251 260 266 269 265 258 254 249 249 251 258 265 272 276 278 283 288 293 296 300 302 302 302 303 303 303 304 304 305 304 303 303 304 304 304 303 303 304 307 309 310 311 310
243 249 260 265 264 262 252 250 254 260 266 272 277 281 285 289 293 297 300 301 302 302 303 304 304 304 304 304 305 305 303 304 304 304 304 303 304 305 307 309 310 310 310 309
242 249 254 259 258 254 258 260 264 270 273 277 282 287 292 296 299 301 303 303 303 304 305 304 304 304 304 304 304 303 304 305 304 303 303 304 305 306 307 307 308 309 308 308